When you browse on this site, cookies collect data to enhance your experience and personalize the content and advertising you see.
Visit our Privacy Policy to learn more. By continuing to use the site, you agree to this use of cookies and data.
  • în România
  • Lista ţărilor
  • Pe 7 zile
  • Temperatura apei
  • Meteo pe hartă
  • Widget-uri
  • user-avatar
    Intrare

    Meteo pe oră la Ho Chi Minh

    Astăzi, 13 Decembrie, Vineri

    Timp Temperatura Precipitaţii Vânt Presiune Umiditate
    00:00 +25°C° 0 mm 1 m/s 759 mmHg 81%
    01:00 +25°C° 0 mm 1 m/s 759 mmHg 82%
    02:00 +25°C° 0 mm 1 m/s 759 mmHg 82%
    03:00 +25°C° 0 mm 2 m/s 758 mmHg 83%
    04:00 +24°C° 0 mm 2 m/s 758 mmHg 83%
    05:00 +24°C° 0 mm 2 m/s 758 mmHg 81%
    06:00 +24°C° 0 mm 2 m/s 759 mmHg 78%
    07:00 +24°C° 0 mm 2 m/s 759 mmHg 76%
    08:00 +26°C° 0 mm 2 m/s 760 mmHg 69%
    09:00 +28°C° 0 mm 2 m/s 760 mmHg 62%
    10:00 +30°C° 0 mm 2 m/s 760 mmHg 55%
    11:00 +31°C° 0 mm 2 m/s 759 mmHg 53%
    12:00 +32°C° 0 mm 2 m/s 759 mmHg 51%
    13:00 +34°C° 0 mm 2 m/s 758 mmHg 49%
    14:00 +32°C° 0 mm 2 m/s 758 mmHg 51%
    15:00 +32°C° 0 mm 2 m/s 757 mmHg 53%
    16:00 +31°C° 0 mm 2 m/s 757 mmHg 55%
    17:00 +30°C° 0 mm 2 m/s 758 mmHg 59%
    18:00 +29°C° 0 mm 2 m/s 758 mmHg 62%
    19:00 +27°C° 0 mm 2 m/s 759 mmHg 65%
    20:00 +27°C° 0 mm 1 m/s 759 mmHg 67%
    21:00 +27°C° 0 mm 1 m/s 760 mmHg 70%
    22:00 +27°C° 0 mm 1 m/s 760 mmHg 72%
    23:00 +26°C° 0 mm 1 m/s 760 mmHg 73%

    Mâine, 14 Decembrie, Sâmbătă

    Timp Temperatura Precipitaţii Vânt Presiune Umiditate
    00:00 +26°C° 0 mm 1 m/s 759 mmHg 74%
    01:00 +26°C° 0 mm 1 m/s 759 mmHg 76%
    02:00 +25°C° 0 mm 1 m/s 759 mmHg 77%
    03:00 +25°C° 0 mm 1 m/s 758 mmHg 78%
    04:00 +24°C° 0 mm 1 m/s 758 mmHg 79%
    05:00 +25°C° 0 mm 1 m/s 759 mmHg 79%
    06:00 +25°C° 0 mm 1 m/s 759 mmHg 78%
    07:00 +25°C° 0 mm 1 m/s 760 mmHg 78%
    08:00 +26°C° 0 mm 0 m/s 760 mmHg 70%
    09:00 +28°C° 0 mm 0 m/s 760 mmHg 63%
    10:00 +30°C° 0 mm 0 m/s 760 mmHg 55%
    11:00 +33°C° 0 mm 1 m/s 759 mmHg 51%
    12:00 +34°C° 0 mm 1 m/s 758 mmHg 48%
    13:00 +36°C° 0 mm 2 m/s 757 mmHg 44%
    14:00 +35°C° 0 mm 2 m/s 757 mmHg 47%
    15:00 +35°C° 0 mm 2 m/s 756 mmHg 49%
    16:00 +34°C° 0 mm 2 m/s 756 mmHg 52%
    17:00 +31°C° 0 mm 3 m/s 756 mmHg 59%
    18:00 +30°C° 0 mm 3 m/s 757 mmHg 65%
    19:00 +28°C° 0 mm 3 m/s 757 mmHg 72%
    20:00 +28°C° 0 mm 2 m/s 758 mmHg 73%
    21:00 +27°C° 0 mm 2 m/s 758 mmHg 73%
    22:00 +27°C° 0 mm 2 m/s 758 mmHg 74%
    23:00 +27°C° 0 mm 2 m/s 758 mmHg 75%

    Poimâine, 15 Decembrie, Duminică

    Timp Temperatura Precipitaţii Vânt Presiune Umiditate
    00:00 +26°C° 0 mm 2 m/s 758 mmHg 76%
    01:00 +26°C° 0 mm 2 m/s 758 mmHg 77%
    02:00 +26°C° 0 mm 2 m/s 757 mmHg 78%
    03:00 +25°C° 0 mm 1 m/s 757 mmHg 79%
    04:00 +25°C° 0 mm 1 m/s 757 mmHg 80%
    05:00 +25°C° 0 mm 1 m/s 757 mmHg 79%
    06:00 +25°C° 0 mm 1 m/s 758 mmHg 78%
    07:00 +26°C° 0 mm 1 m/s 758 mmHg 78%
    08:00 +28°C° 0 mm 1 m/s 758 mmHg 70%
    09:00 +30°C° 0 mm 1 m/s 759 mmHg 62%
    10:00 +32°C° 0 mm 1 m/s 759 mmHg 54%
    11:00 +33°C° 0 mm 1 m/s 758 mmHg 50%
    12:00 +34°C° 0 mm 1 m/s 757 mmHg 46%
    13:00 +36°C° 0 mm 2 m/s 757 mmHg 42%
    14:00 +36°C° 0 mm 2 m/s 756 mmHg 43%
    15:00 +36°C° 0 mm 3 m/s 756 mmHg 45%
    16:00 +35°C° 0 mm 3 m/s 755 mmHg 46%
    17:00 +33°C° 0 mm 3 m/s 756 mmHg 54%
    18:00 +30°C° 0 mm 3 m/s 756 mmHg 62%
    19:00 +28°C° 0 mm 2 m/s 756 mmHg 69%
    20:00 +28°C° 0 mm 2 m/s 757 mmHg 70%
    21:00 +28°C° 0 mm 2 m/s 757 mmHg 72%
    22:00 +28°C° 0 mm 1 m/s 757 mmHg 73%
    23:00 +27°C° 0 mm 1 m/s 757 mmHg 74%

    16 Decembrie, Luni

    Timp Temperatura Precipitaţii Vânt Presiune Umiditate
    00:00 +27°C° 0 mm 1 m/s 757 mmHg 75%
    01:00 +27°C° 0 mm 1 m/s 757 mmHg 76%
    02:00 +26°C° 0 mm 1 m/s 757 mmHg 77%
    03:00 +26°C° 0 mm 1 m/s 756 mmHg 77%
    04:00 +26°C° 0 mm 1 m/s 756 mmHg 78%
    05:00 +26°C° 0 mm 1 m/s 756 mmHg 78%
    06:00 +26°C° 0 mm 1 m/s 757 mmHg 77%
    07:00 +26°C° 0 mm 1 m/s 757 mmHg 77%
    08:00 +28°C° 0 mm 1 m/s 757 mmHg 69%
    09:00 +31°C° 0 mm 1 m/s 757 mmHg 61%
    10:00 +33°C° 0 mm 1 m/s 758 mmHg 54%
    11:00 +34°C° 0 mm 1 m/s 757 mmHg 49%
    12:00 +36°C° 0 mm 2 m/s 756 mmHg 45%
    13:00 +37°C° 0 mm 3 m/s 756 mmHg 41%
    14:00 +36°C° 0 mm 3 m/s 755 mmHg 43%
    15:00 +36°C° 0 mm 3 m/s 755 mmHg 45%
    16:00 +36°C° 0 mm 3 m/s 755 mmHg 46%
    17:00 +34°C° 0 mm 3 m/s 755 mmHg 53%
    18:00 +31°C° 0 mm 3 m/s 756 mmHg 60%
    19:00 +29°C° 0 mm 2 m/s 756 mmHg 66%
    20:00 +29°C° 0 mm 2 m/s 757 mmHg 68%
    21:00 +28°C° 0 mm 2 m/s 757 mmHg 69%
    22:00 +28°C° 0 mm 2 m/s 757 mmHg 71%
    23:00 +28°C° 0 mm 2 m/s 757 mmHg 72%

    17 Decembrie, Marţi

    Timp Temperatura Precipitaţii Vânt Presiune Umiditate
    00:00 +27°C° 0 mm 2 m/s 757 mmHg 72%
    01:00 +27°C° 0 mm 1 m/s 757 mmHg 73%
    02:00 +27°C° 0 mm 1 m/s 757 mmHg 75%
    03:00 +26°C° 0 mm 1 m/s 756 mmHg 77%
    04:00 +26°C° 0 mm 1 m/s 756 mmHg 78%
    05:00 +26°C° 0 mm 1 m/s 757 mmHg 78%
    06:00 +26°C° 0 mm 1 m/s 757 mmHg 78%
    07:00 +26°C° 0 mm 1 m/s 757 mmHg 77%
    08:00 +28°C° 0 mm 1 m/s 757 mmHg 70%
    09:00 +30°C° 0 mm 1 m/s 758 mmHg 62%
    10:00 +31°C° 0 mm 0 m/s 758 mmHg 55%
    11:00 +34°C° 0 mm 1 m/s 757 mmHg 50%
    12:00 +36°C° 0 mm 2 m/s 757 mmHg 44%
    13:00 +37°C° 0 mm 2 m/s 756 mmHg 39%
    14:00 +36°C° 0 mm 3 m/s 756 mmHg 42%
    15:00 +35°C° 0 mm 4 m/s 755 mmHg 44%
    16:00 +34°C° 0 mm 4 m/s 755 mmHg 47%
    17:00 +33°C° 0 mm 4 m/s 756 mmHg 53%
    18:00 +30°C° 0 mm 4 m/s 756 mmHg 59%
    19:00 +28°C° 0 mm 4 m/s 757 mmHg 65%
    20:00 +28°C° 0 mm 3 m/s 757 mmHg 67%
    21:00 +27°C° 0 mm 3 m/s 758 mmHg 68%
    22:00 +27°C° 0 mm 3 m/s 758 mmHg 70%
    23:00 +27°C° 0 mm 2 m/s 758 mmHg 72%

    18 Decembrie, Miercuri

    Timp Temperatura Precipitaţii Vânt Presiune Umiditate
    00:00 +26°C° 0 mm 2 m/s 758 mmHg 73%
    01:00 +26°C° 0 mm 2 m/s 757 mmHg 75%
    02:00 +25°C° 0 mm 1 m/s 757 mmHg 77%
    03:00 +25°C° 0 mm 1 m/s 757 mmHg 78%
    04:00 +24°C° 0 mm 1 m/s 756 mmHg 80%
    05:00 +25°C° 0 mm 2 m/s 757 mmHg 79%
    06:00 +25°C° 0 mm 2 m/s 757 mmHg 78%
    07:00 +25°C° 0 mm 2 m/s 758 mmHg 77%
    08:00 +27°C° 0 mm 2 m/s 758 mmHg 69%
    09:00 +29°C° 0 mm 2 m/s 758 mmHg 61%
    10:00 +31°C° 0 mm 2 m/s 758 mmHg 53%
    11:00 +32°C° 0 mm 2 m/s 758 mmHg 50%
    12:00 +35°C° 0 mm 2 m/s 757 mmHg 46%
    13:00 +36°C° 0 mm 2 m/s 756 mmHg 42%
    14:00 +35°C° 0 mm 2 m/s 756 mmHg 44%
    15:00 +35°C° 0 mm 2 m/s 755 mmHg 46%
    16:00 +34°C° 0 mm 2 m/s 755 mmHg 48%
    17:00 +33°C° 0 mm 3 m/s 755 mmHg 54%
    18:00 +30°C° 0 mm 3 m/s 756 mmHg 60%
    19:00 +28°C° 0 mm 3 m/s 757 mmHg 66%
    20:00 +28°C° 0 mm 3 m/s 757 mmHg 67%
    21:00 +28°C° 0 mm 3 m/s 758 mmHg 69%
    22:00 +27°C° 0 mm 3 m/s 758 mmHg 71%
    23:00 +27°C° 0 mm 2 m/s 758 mmHg 73%
    Arată mai mult